Hattiesburg, MS

2:31 AM CST on February 27, 2017 (GMT -0600)
Chain Municipal

Weather History for KHBG - December, 2012

Change the Weather History Date:

Tuesday, December 25, 2012

  Actual Average Record
Temperature  
Mean Temperature 61 °F 50 °F  
Max Temperature 74 °F 61 °F 80 °F (1955)
Min Temperature 48 °F 39 °F 7 °F (1989)
Degree Days  
Heating Degree Days 4 16  
Month to date heating degree days 189 361  
Since 1 July heating degree days 574 689  
Cooling Degree Days 0 0  
Month to date cooling degree days 19 12  
Year to date cooling degree days 2733 2402  
Growing Degree Days 10 (Base 50)    
Moisture  
Dew Point 56 °F    
Average Humidity 82    
Maximum Humidity 100    
Minimum Humidity 64    
Precipitation  
Precipitation 1.18 in 0.16 in 1.75 in (1988)
Month to date precipitation 4.58 4.03  
Year to date precipitation 65.42 58.29  
Sea Level Pressure  
Sea Level Pressure 29.71 in    
Wind  
Wind Speed 8 mph (South)    
Max Wind Speed 29 mph    
Max Gust Speed 38 mph    
Visibility 6 miles    
Events Fog , Rain , Thunderstorm    
T = Trace of Precipitation, MM = Missing Value Source: NWS Daily Summary

Daily Weather History Graph

Daily Weather History Graph

Search for Another Location

Airport or City:

Trip Planner

Search our weather history database for the weather conditions in past years. The results will help you decide how hot, cold, wet, or windy it might be!

Date:

Astronomy

Dec. 25, 2012 Rise Set
Actual Time 6:53 AM CST 5:01 PM CST
Civil Twilight 6:26 AM CST 5:27 PM CST
Nautical Twilight 5:56 AM CST 5:58 PM CST
Astronomical Twilight 5:27 AM CST 6:27 PM CST
Moon 3:06 PM CST (12/25) 4:28 AM CST (12/25)
Length of Visible Light 11h 00m
Length of Day
10h 07m
Waxing Gibbous, 94% of the Moon is Illuminated
Dec 25
Waxing Gibbous
Dec 28
Full
Jan 4
Last Quarter
Jan 11
New
Jan 18
First Quarter

Hourly Weather History & Observations

Time (CST) Temp. Dew Point Humidity Pressure Visibility Wind Dir Wind Speed Gust Speed Precip Events Conditions
12:40 AM 48.2 °F 46.4 °F 93% 29.90 in 10.0 mi Calm Calm - N/A   Scattered Clouds
12:49 AM 50.0 °F 48.2 °F 94% 29.89 in 10.0 mi Calm Calm - N/A   Mostly Cloudy
12:53 AM 50.0 °F 46.9 °F 89% 29.88 in 10.0 mi Calm Calm - N/A   Mostly Cloudy
1:45 AM 51.8 °F 48.2 °F 88% 29.88 in 2.5 mi Calm Calm - N/A   Overcast
1:53 AM 51.1 °F 50.0 °F 96% 29.88 in 0.8 mi Calm Calm - N/A   Mist
2:02 AM 51.8 °F 50.0 °F 94% 29.88 in 0.2 mi Calm Calm - N/A Fog Fog
2:53 AM 53.1 °F 51.1 °F 93% 29.86 in 0.2 mi Calm Calm - N/A Fog Fog
3:21 AM 53.6 °F 51.8 °F 94% 29.85 in 0.2 mi Calm Calm - N/A Fog , Thunderstorm Fog
3:36 AM 53.6 °F 51.8 °F 94% 29.84 in 0.2 mi Calm Calm - N/A Fog Fog
3:53 AM 54.0 °F 52.0 °F 93% 29.83 in 0.2 mi Calm Calm - 0.01 in Fog Fog
4:53 AM 54.0 °F 53.1 °F 97% 29.82 in 0.2 mi NNW 3.5 mph - N/A Fog Fog
5:46 AM 55.4 °F 53.6 °F 94% 29.83 in 0.5 mi NNW 3.5 mph - 0.09 in Fog , Rain , Thunderstorm Heavy Thunderstorms and Rain
5:53 AM 55.0 °F 54.0 °F 96% 29.81 in 0.8 mi East 3.5 mph - 0.13 in Rain , Thunderstorm Heavy Thunderstorms and Rain
6:00 AM 55.4 °F 53.6 °F 94% 29.81 in 1.8 mi ENE 4.6 mph - 0.04 in Rain , Thunderstorm Thunderstorms and Rain
6:04 AM 55.4 °F 53.6 °F 94% 29.81 in 2.5 mi Variable 3.5 mph - 0.05 in Rain Rain
6:06 AM 55.4 °F 55.4 °F 100% 29.82 in 3.0 mi Calm Calm - 0.06 in Rain Rain
6:11 AM 55.4 °F 55.4 °F 100% 29.80 in 2.5 mi Calm Calm - 0.09 in Rain Heavy Rain
6:20 AM 55.4 °F 55.4 °F 100% 29.82 in 3.0 mi Calm Calm - 0.11 in Rain Heavy Rain
6:33 AM 55.4 °F 55.4 °F 100% 29.82 in 4.0 mi Calm Calm - 0.13 in Rain Rain
6:53 AM 55.9 °F 55.0 °F 97% 29.82 in 2.5 mi Calm Calm - 0.20 in Rain Heavy Rain
7:06 AM 55.4 °F 53.6 °F 94% 29.82 in 3.0 mi NNE 4.6 mph - 0.03 in Rain Rain
7:33 AM 55.4 °F 53.6 °F 94% 29.80 in 5.0 mi Calm Calm - 0.08 in Rain , Thunderstorm Light Rain
7:37 AM 55.4 °F 53.6 °F 94% 29.79 in 1.8 mi Calm Calm - 0.16 in Rain , Thunderstorm Heavy Rain
7:47 AM 55.4 °F 55.4 °F 100% 29.79 in 2.5 mi Calm Calm - 0.18 in Rain Light Rain
7:48 AM 55.4 °F 55.4 °F 100% 29.79 in 3.0 mi Calm Calm - 0.18 in Rain Light Rain
7:53 AM 55.9 °F 55.0 °F 97% 29.78 in 5.0 mi Calm Calm - 0.18 in Rain Light Rain
8:53 AM 60.1 °F 57.9 °F 93% 29.78 in 8.0 mi ESE 3.5 mph - 0.00 in   Overcast
9:19 AM 60.8 °F 59.0 °F 94% 29.78 in 10.0 mi ESE 3.5 mph - N/A   Overcast
9:53 AM 62.1 °F 60.1 °F 93% 29.78 in 9.0 mi ESE 3.5 mph - N/A   Overcast
10:19 AM 64.4 °F 62.6 °F 94% 29.75 in 10.0 mi SE 6.9 mph - 0.00 in   Mostly Cloudy
10:53 AM 69.1 °F 64.9 °F 87% 29.73 in 10.0 mi South 8.1 mph 18.4 mph 0.00 in   Overcast
11:29 AM 71.6 °F 64.4 °F 78% 29.74 in 10.0 mi South 15.0 mph 21.9 mph N/A   Mostly Cloudy
11:53 AM 73.9 °F 61.0 °F 64% 29.70 in 10.0 mi South 23.0 mph 38.0 mph N/A   Partly Cloudy
12:53 PM 73.0 °F 60.1 °F 64% 29.67 in 10.0 mi South 17.3 mph 27.6 mph N/A   Mostly Cloudy
1:53 PM 72.0 °F 61.0 °F 68% 29.63 in 10.0 mi South 19.6 mph 27.6 mph N/A   Overcast
2:53 PM 69.1 °F 63.0 °F 81% 29.56 in 8.0 mi SSE 17.3 mph 24.2 mph 0.02 in Rain Light Rain
3:13 PM 69.8 °F 62.6 °F 78% 29.54 in 8.0 mi South 17.3 mph 33.4 mph 0.01 in Rain , Thunderstorm Light Rain
3:49 PM 68.0 °F 64.4 °F 88% 29.53 in 1.8 mi South 19.6 mph 35.7 mph 0.28 in Rain , Thunderstorm Heavy Thunderstorms and Rain
3:53 PM 68.0 °F 64.9 °F 90% 29.55 in 1.8 mi West 15.0 mph 29.9 mph 0.30 in Rain , Thunderstorm Heavy Thunderstorms and Rain
3:55 PM 68.0 °F 64.4 °F 88% 29.55 in 1.5 mi SW 16.1 mph 26.5 mph 0.05 in Rain , Thunderstorm Heavy Thunderstorms and Rain
4:05 PM 68.0 °F 64.4 °F 88% 29.55 in 3.0 mi SSW 13.8 mph 29.9 mph 0.08 in Rain , Thunderstorm Light Thunderstorms and Rain
4:15 PM 69.8 °F 64.4 °F 83% 29.54 in 10.0 mi South 17.3 mph 27.6 mph 0.08 in   Overcast
4:53 PM 68.0 °F 63.0 °F 84% 29.53 in 10.0 mi South 8.1 mph - 0.08 in   Mostly Cloudy
5:00 PM 68.0 °F 62.6 °F 83% 29.52 in 10.0 mi SSE 11.5 mph - N/A Thunderstorm Thunderstorm
5:07 PM 68.0 °F 62.6 °F 83% 29.50 in 10.0 mi SSE 13.8 mph - N/A Thunderstorm Thunderstorm
5:24 PM 66.2 °F 60.8 °F 83% 29.55 in 2.5 mi WSW 16.1 mph 36.8 mph 0.13 in Rain , Thunderstorm Heavy Thunderstorms and Rain
5:34 PM 64.4 °F 60.8 °F 88% 29.54 in 3.0 mi WSW 11.5 mph 21.9 mph 0.21 in Rain , Thunderstorm Heavy Thunderstorms and Rain
5:53 PM 63.0 °F 59.0 °F 87% 29.55 in 7.0 mi South 11.5 mph - 0.26 in Rain , Thunderstorm Thunderstorms and Rain
6:01 PM 62.6 °F 59.0 °F 88% 29.55 in 10.0 mi South 12.7 mph - 0.00 in Rain , Thunderstorm Light Thunderstorms and Rain
6:20 PM 62.6 °F 59.0 °F 88% 29.55 in 10.0 mi South 6.9 mph - 0.00 in Rain Light Rain
6:53 PM 62.1 °F 57.9 °F 86% 29.54 in 10.0 mi SSW 9.2 mph - 0.00 in   Overcast
7:53 PM 62.1 °F 57.0 °F 84% 29.57 in 10.0 mi SW 9.2 mph - N/A   Mostly Cloudy
8:53 PM 61.0 °F 52.0 °F 72% 29.62 in 10.0 mi WSW 8.1 mph 18.4 mph N/A   Partly Cloudy
9:53 PM 57.0 °F 46.9 °F 69% 29.64 in 10.0 mi WSW 11.5 mph 18.4 mph N/A   Clear
10:53 PM 54.0 °F 43.0 °F 66% 29.66 in 10.0 mi West 9.2 mph 21.9 mph N/A   Scattered Clouds
11:53 PM 53.1 °F 43.0 °F 69% 29.67 in 10.0 mi West 11.5 mph - N/A   Mostly Cloudy